Location: Kaarina
(60.4167°N, 22.4167°E)
Time: 21:17:58
(UTC+03:00)

COSMOS 2406 - Pass Details

Date: 24 August 2019
Orbit: 842 x 865 km, 71.0° (Epoch: 17 October)

Event Time Altitude Azimuth Distance (km) Brightness Sun altitude
Rises 23:29:29 0° 234° (SW) 3,408 6.3 -14.5°
Reaches altitude 10° 23:31:57 10° 238° (WSW) 2,479 5.6 -14.7°
Maximum altitude 23:37:36 61° 319° (NW) 967 3.8 -15.0°
Drops below altitude 10° 23:43:19 10° 40° (NE) 2,506 5.9 -15.4°
Sets 23:45:50 0° 44° (NE) 3,449 6.6 -15.5°
